| time (UTC) | temp F | wind direction | speed MPH | gust MPH | rain 1hr in | rain 24hr in | rain mn in | humidity % | barometer mb |
| 20260503225145 | 77 | 190 | 6.0 | 11.0 | 0.00 | 0.01 | 0.01 | 32 | 1017.3 |
| 20260503224658 | 77 | 180 | 7.0 | 12.0 | 0.00 | 0.01 | 0.01 | 34 | 1017.2 |
| 20260503224123 | 77 | 157 | 8.0 | 12.0 | 0.00 | 0.01 | 0.01 | 32 | 1017.2 |
| 20260503223657 | 77 | 115 | 4.0 | 12.0 | 0.00 | 0.01 | 0.01 | 35 | 1017.2 |
| 20260503223119 | 77 | 127 | 6.0 | 12.0 | 0.00 | 0.01 | 0.01 | 33 | 1017.3 |
| 20260503222653 | 78 | 165 | 7.0 | 11.0 | 0.00 | 0.01 | 0.01 | 33 | 1017.4 |
| 20260503222122 | 78 | 202 | 7.0 | 13.0 | 0.00 | 0.01 | 0.01 | 33 | 1017.5 |
| 20260503221655 | 77 | 156 | 3.0 | 8.0 | 0.00 | 0.01 | 0.01 | 35 | 1017.6 |
| 20260503221118 | 77 | 188 | 4.0 | 11.0 | 0.00 | 0.01 | 0.01 | 35 | 1017.6 |
| 20260503220644 | 77 | 134 | 5.0 | 11.0 | 0.00 | 0.01 | 0.01 | 32 | 1017.7 |
| 20260503220155 | 77 | 179 | 6.0 | 12.0 | 0.00 | 0.01 | 0.01 | 31 | 1017.8 |
| 20260503215720 | 77 | 180 | 7.0 | 12.0 | 0.00 | 0.01 | 0.01 | 32 | 1018.0 |
| 20260503215132 | 77 | 223 | 5.0 | 11.0 | 0.00 | 0.01 | 0.01 | 34 | 1018.0 |
| 20260503214657 | 77 | 155 | 6.0 | 12.0 | 0.00 | 0.01 | 0.01 | 31 | 1018.2 |
| 20260503214125 | 78 | 224 | 8.0 | 12.0 | 0.00 | 0.01 | 0.01 | 30 | 1018.3 |
| 20260503213631 | 77 | 153 | 7.0 | 10.0 | 0.00 | 0.01 | 0.01 | 30 | 1018.4 |
| 20260503213114 | 77 | 135 | 4.0 | 12.0 | 0.00 | 0.01 | 0.01 | 34 | 1018.4 |
| 20260503212642 | 77 | 148 | 7.0 | 14.0 | 0.00 | 0.01 | 0.01 | 33 | 1018.5 |
| 20260503212208 | 77 | 134 | 7.0 | 14.0 | 0.00 | 0.01 | 0.01 | 34 | 1018.5 |
| 20260503211644 | 77 | 138 | 8.0 | 11.0 | 0.00 | 0.01 | 0.01 | 33 | 1018.5 |
| 20260503211212 | 77 | 141 | 4.0 | 13.0 | 0.00 | 0.01 | 0.01 | 34 | 1018.6 |
| 20260503210643 | 77 | 105 | 6.0 | 15.0 | 0.00 | 0.01 | 0.01 | 35 | 1018.8 |
| 20260503210144 | 77 | 157 | 9.0 | 15.0 | 0.00 | 0.01 | 0.01 | 32 | 1018.9 |
| 20260503205657 | 77 | 139 | 6.0 | 12.0 | 0.00 | 0.01 | 0.01 | 35 | 1019.0 |
| 20260503205122 | 77 | 124 | 7.0 | 12.0 | 0.00 | 0.01 | 0.01 | 33 | 1019.1 |
| 20260503204657 | 77 | 150 | 6.0 | 13.0 | 0.00 | 0.01 | 0.01 | 32 | 1019.3 |
| 20260503204121 | 77 | 193 | 6.0 | 13.0 | 0.00 | 0.01 | 0.01 | 34 | 1019.4 |
| 20260503203648 | 77 | 134 | 8.0 | 13.0 | 0.00 | 0.01 | 0.01 | 32 | 1019.4 |
| 20260503203221 | 77 | 169 | 3.0 | 12.0 | 0.00 | 0.01 | 0.01 | 35 | 1019.5 |
| 20260503202725 | 77 | 151 | 6.0 | 12.0 | 0.00 | 0.01 | 0.01 | 32 | 1019.6 |
| 20260503202137 | 77 | 213 | 4.0 | 13.0 | 0.00 | 0.01 | 0.01 | 30 | 1019.7 |
| 20260503201642 | 77 | 214 | 7.0 | 13.0 | 0.00 | 0.01 | 0.01 | 34 | 1019.8 |
| 20260503201155 | 77 | 192 | 5.0 | 13.0 | 0.00 | 0.01 | 0.01 | 33 | 1019.9 |
| 20260503200721 | 77 | 210 | 6.0 | 9.0 | 0.00 | 0.01 | 0.01 | 38 | 1019.9 |
| 20260503200134 | 77 | 177 | 5.0 | 11.0 | 0.00 | 0.01 | 0.01 | 33 | 1020.1 |
| 20260503195659 | 77 | 169 | 7.0 | 11.0 | 0.00 | 0.01 | 0.01 | 33 | 1020.1 |
| 20260503195133 | 76 | 198 | 5.0 | 11.0 | 0.00 | 0.01 | 0.01 | 36 | 1020.2 |
| 20260503194656 | 76 | 173 | 5.0 | 12.0 | 0.00 | 0.01 | 0.01 | 35 | 1020.3 |
| 20260503194209 | 76 | 153 | 7.0 | 12.0 | 0.00 | 0.01 | 0.01 | 34 | 1020.4 |
| 20260503193635 | 76 | 169 | 6.0 | 13.0 | 0.00 | 0.01 | 0.01 | 35 | 1020.4 |
| 20260503193118 | 75 | 144 | 2.0 | 13.0 | 0.00 | 0.01 | 0.01 | 37 | 1020.4 |
| 20260503192628 | 75 | 142 | 7.0 | 12.0 | 0.00 | 0.01 | 0.01 | 36 | 1020.5 |
| 20260503192153 | 75 | 169 | 6.0 | 12.0 | 0.00 | 0.01 | 0.01 | 37 | 1020.6 |
| 20260503191727 | 75 | 132 | 5.0 | 13.0 | 0.00 | 0.01 | 0.01 | 34 | 1020.7 |
| 20260503191130 | 75 | 124 | 8.0 | 15.0 | 0.00 | 0.01 | 0.01 | 36 | 1020.8 |
| 20260503190635 | 75 | 163 | 6.0 | 15.0 | 0.00 | 0.01 | 0.01 | 37 | 1020.8 |
| 20260503190206 | 75 | 147 | 5.0 | 10.0 | 0.00 | 0.01 | 0.01 | 34 | 1020.8 |
| 20260503185635 | 75 | 147 | 7.0 | 14.0 | 0.00 | 0.01 | 0.01 | 33 | 1021.0 |
| 20260503185207 | 75 | 167 | 9.0 | 14.0 | 0.00 | 0.01 | 0.01 | 34 | 1021.1 |
| 20260503184633 | 75 | 134 | 9.0 | 14.0 | 0.00 | 0.01 | 0.01 | 33 | 1021.1 |
| 20260503183640 | 75 | 178 | 7.0 | 16.0 | 0.00 | 0.01 | 0.01 | 35 | 1021.3 |
| 20260503183145 | 75 | 134 | 7.0 | 16.0 | 0.00 | 0.01 | 0.01 | 32 | 1021.4 |
| 20260503182716 | 75 | 184 | 6.0 | 14.0 | 0.00 | 0.01 | 0.01 | 34 | 1021.5 |
| 20260503182215 | 75 | 198 | 5.0 | 12.0 | 0.00 | 0.01 | 0.01 | 36 | 1021.6 |
| 20260503181619 | 75 | 218 | 8.0 | 14.0 | 0.00 | 0.01 | 0.01 | 33 | 1021.6 |
| 20260503181151 | 75 | 174 | 6.0 | 11.0 | 0.00 | 0.01 | 0.01 | 36 | 1021.7 |
| 20260503180622 | 75 | 178 | 5.0 | 12.0 | 0.00 | 0.01 | 0.01 | 36 | 1021.8 |
| 20260503180155 | 75 | 140 | 8.0 | 15.0 | 0.00 | 0.01 | 0.01 | 34 | 1021.9 |
| 20260503175659 | 74 | 207 | 8.0 | 16.0 | 0.00 | 0.01 | 0.01 | 34 | 1022.0 |
| 20260503175211 | 75 | 178 | 10.0 | 16.0 | 0.00 | 0.01 | 0.01 | 34 | 1022.2 |
| 20260503174614 | 74 | 192 | 4.0 | 14.0 | 0.00 | 0.01 | 0.01 | 34 | 1022.2 |
| 20260503174148 | 74 | 173 | 7.0 | 14.0 | 0.00 | 0.01 | 0.01 | 34 | 1022.4 |
| 20260503173613 | 74 | 150 | 8.0 | 15.0 | 0.00 | 0.01 | 0.01 | 35 | 1022.5 |
| 20260503173125 | 74 | 202 | 9.0 | 16.0 | 0.00 | 0.01 | 0.01 | 35 | 1022.7 |
| 20260503172650 | 74 | 175 | 8.0 | 14.0 | 0.00 | 0.01 | 0.01 | 36 | 1022.6 |
| 20260503172226 | 74 | 210 | 7.0 | 12.0 | 0.00 | 0.01 | 0.01 | 38 | 1022.6 |
| 20260503171628 | 74 | 172 | 8.0 | 12.0 | 0.00 | 0.01 | 0.01 | 39 | 1022.8 |
| 20260503171151 | 74 | 184 | 6.0 | 14.0 | 0.00 | 0.01 | 0.01 | 42 | 1022.7 |
| 20260503170704 | 74 | 182 | 7.0 | 14.0 | 0.00 | 0.01 | 0.01 | 41 | 1022.8 |
| 20260503170133 | 74 | 186 | 6.0 | 13.0 | 0.00 | 0.01 | 0.01 | 40 | 1022.8 |
| 20260503160203 | 72 | 198 | 7.0 | 11.0 | 0.00 | 0.01 | 0.01 | 47 | 1023.5 |
| 20260503150655 | 63 | 186 | 1.0 | 3.0 | 0.00 | 0.01 | 0.01 | 76 | 1023.6 |
| 20260503150128 | 62 | 258 | 1.0 | 4.0 | 0.00 | 0.01 | 0.01 | 81 | 1023.7 |
| 20260503140114 | 54 | 350 | 1.0 | 2.0 | 0.00 | 0.01 | 0.01 | 94 | 1023.7 |
| 20260503131221 | 50 | 325 | 0.0 | 4.0 | 0.00 | 0.01 | 0.01 | 93 | 1023.3 |
| 20260503130823 | 50 | 310 | 1.0 | 4.0 | 0.00 | 0.01 | 0.01 | 93 | 1023.3 |
| 20260503130141 | 49 | 319 | 1.0 | 3.0 | 0.00 | 0.01 | 0.01 | 93 | 1023.3 |
| 20260503120144 | 47 | 319 | 0.0 | 0.0 | 0.01 | 0.01 | 0.01 | 90 | 1022.7 |
| 20260503110646 | 47 | 319 | 0.0 | 0.0 | 0.00 | 0.00 | 0.00 | 90 | 1022.6 |
| 20260503110220 | 48 | 319 | 0.0 | 0.0 | 0.00 | 0.00 | 0.00 | 90 | 1022.5 |
| 20260503100158 | 48 | 291 | 1.0 | 2.0 | 0.00 | 0.00 | 0.00 | 89 | 1022.3 |
| 20260503090153 | 49 | 341 | 0.0 | 2.0 | 0.00 | 0.00 | 0.00 | 89 | 1021.8 |
| 20260503081121 | 50 | 341 | 0.0 | 1.0 | 0.00 | 0.00 | 0.00 | 88 | 1022.0 |
| 20260503080654 | 50 | 341 | 0.0 | 0.0 | 0.00 | 0.00 | 0.00 | 88 | 1021.9 |
| 20260503080119 | 50 | 341 | 0.0 | 0.0 | 0.00 | 0.00 | 0.00 | 88 | 1022.0 |
| 20260503072644 | 51 | 341 | 0.0 | 1.0 | 0.00 | 0.00 | 0.00 | 87 | 1022.3 |
| 20260503072118 | 51 | 341 | 0.0 | 2.0 | 0.00 | 0.00 | 0.00 | 87 | 1022.4 |
| 20260503071644 | 51 | 341 | 1.0 | 2.0 | 0.00 | 0.00 | 0.00 | 87 | 1022.4 |
| 20260503071121 | 51 | 341 | 1.0 | 2.0 | 0.00 | 0.00 | 0.00 | 87 | 1022.5 |
| 20260503070648 | 51 | 341 | 0.0 | 1.0 | 0.00 | 0.00 | 0.00 | 87 | 1022.6 |
| 20260503070115 | 51 | 341 | 0.0 | 1.0 | 0.00 | 0.00 | 0.00 | 86 | 1022.6 |
| 20260503060122 | 53 | 341 | 0.0 | 0.0 | 0.00 | 0.00 | 0.00 | 84 | 1022.6 |
| 20260503055126 | 53 | 341 | 0.0 | 0.0 | 0.00 | 0.00 | 0.00 | 84 | 1022.6 |
| 20260503054631 | 53 | 341 | 0.0 | 0.0 | 0.00 | 0.00 | 0.00 | 84 | 1022.5 |
| 20260503054156 | 53 | 341 | 0.0 | 0.0 | 0.00 | 0.00 | 0.00 | 84 | 1022.5 |
| 20260503053613 | 53 | 341 | 0.0 | 0.0 | 0.00 | 0.00 | 0.00 | 84 | 1022.5 |
| 20260503053135 | 53 | 341 | 0.0 | 0.0 | 0.00 | 0.00 | 0.00 | 83 | 1022.5 |
| 20260503052613 | 54 | 341 | 0.0 | 0.0 | 0.00 | 0.00 | 0.00 | 83 | 1022.4 |
| 20260503052136 | 54 | 341 | 0.0 | 0.0 | 0.00 | 0.00 | 0.00 | 83 | 1022.4 |
| 20260503051613 | 54 | 341 | 0.0 | 0.0 | 0.00 | 0.00 | 0.00 | 82 | 1022.4 |
| 20260503051117 | 54 | 341 | 0.0 | 0.0 | 0.00 | 0.00 | 0.00 | 82 | 1022.4 |
| 20260503050700 | 54 | 341 | 0.0 | 0.0 | 0.00 | 0.00 | 0.00 | 82 | 1022.4 |
| 20260503050135 | 54 | 341 | 0.0 | 0.0 | 0.00 | 0.00 | 0.00 | 81 | 1022.4 |
| 20260503045631 | 54 | 341 | 0.0 | 0.0 | 0.00 | 0.00 | 0.00 | 81 | 1022.2 |
| 20260503045157 | 55 | 341 | 0.0 | 2.0 | 0.00 | 0.00 | 0.00 | 81 | 1022.3 |
| 20260503044631 | 55 | 341 | 0.0 | 2.0 | 0.00 | 0.00 | 0.00 | 80 | 1022.3 |
| 20260503044155 | 55 | 103 | 0.0 | 1.0 | 0.00 | 0.00 | 0.00 | 80 | 1022.3 |
| 20260503043709 | 55 | 103 | 0.0 | 0.0 | 0.00 | 0.00 | 0.00 | 79 | 1022.2 |
| 20260503043134 | 55 | 103 | 0.0 | 0.0 | 0.00 | 0.00 | 0.00 | 79 | 1022.3 |
| 20260503042708 | 56 | 103 | 0.0 | 0.0 | 0.00 | 0.00 | 0.00 | 78 | 1022.3 |
| 20260503042129 | 56 | 103 | 0.0 | 0.0 | 0.00 | 0.00 | 0.00 | 78 | 1022.4 |
| 20260503041704 | 56 | 103 | 0.0 | 1.0 | 0.00 | 0.00 | 0.00 | 77 | 1022.4 |
| 20260503041130 | 56 | 103 | 0.0 | 1.0 | 0.00 | 0.00 | 0.00 | 76 | 1022.3 |
| 20260503040655 | 56 | 103 | 0.0 | 0.0 | 0.00 | 0.00 | 0.00 | 75 | 1022.3 |
| 20260503040128 | 57 | 103 | 0.0 | 0.0 | 0.00 | 0.00 | 0.00 | 75 | 1022.2 |
| 20260503035654 | 57 | 103 | 0.0 | 0.0 | 0.00 | 0.00 | 0.00 | 75 | 1022.2 |
| 20260503035203 | 57 | 103 | 0.0 | 0.0 | 0.00 | 0.00 | 0.00 | 74 | 1022.0 |
| 20260503034731 | 57 | 103 | 0.0 | 0.0 | 0.00 | 0.00 | 0.00 | 73 | 1021.9 |
| 20260503034142 | 57 | 103 | 0.0 | 0.0 | 0.00 | 0.00 | 0.00 | 73 | 1021.9 |
| 20260503033707 | 58 | 103 | 0.0 | 0.0 | 0.00 | 0.00 | 0.00 | 73 | 1021.9 |
| 20260503033138 | 58 | 103 | 0.0 | 0.0 | 0.00 | 0.00 | 0.00 | 73 | 1022.0 |
| 20260503032703 | 58 | 103 | 0.0 | 0.0 | 0.00 | 0.00 | 0.00 | 72 | 1022.0 |
| 20260503032129 | 59 | 103 | 0.0 | 1.0 | 0.00 | 0.00 | 0.00 | 72 | 1021.9 |
| 20260503031702 | 59 | 103 | 0.0 | 2.0 | 0.00 | 0.00 | 0.00 | 72 | 1021.8 |
| 20260503031131 | 60 | 103 | 0.0 | 2.0 | 0.00 | 0.00 | 0.00 | 70 | 1021.7 |
| 20260503030706 | 60 | 102 | 0.0 | 0.0 | 0.00 | 0.00 | 0.00 | 69 | 1021.7 |
| 20260503030130 | 60 | 103 | 0.0 | 0.0 | 0.00 | 0.00 | 0.00 | 68 | 1021.6 |
| 20260503025705 | 60 | 102 | 0.0 | 0.0 | 0.00 | 0.00 | 0.00 | 67 | 1021.5 |
| 20260503025129 | 61 | 103 | 0.0 | 0.0 | 0.00 | 0.00 | 0.00 | 66 | 1021.4 |
| 20260503024702 | 61 | 102 | 0.0 | 0.0 | 0.00 | 0.00 | 0.00 | 64 | 1021.3 |
| 20260503024128 | 61 | 103 | 0.0 | 0.0 | 0.00 | 0.00 | 0.00 | 63 | 1021.2 |
| 20260503023654 | 62 | 103 | 0.0 | 0.0 | 0.00 | 0.00 | 0.00 | 62 | 1021.3 |
| 20260503023206 | 62 | 102 | 0.0 | 0.0 | 0.00 | 0.00 | 0.00 | 62 | 1021.3 |
| 20260503022635 | 63 | 103 | 0.0 | 0.0 | 0.00 | 0.00 | 0.00 | 61 | 1021.2 |
| 20260503022208 | 63 | 103 | 0.0 | 0.0 | 0.00 | 0.00 | 0.00 | 60 | 1021.1 |
| 20260503021732 | 64 | 103 | 0.0 | 0.0 | 0.00 | 0.00 | 0.00 | 59 | 1021.0 |
| 20260503021123 | 64 | 102 | 0.0 | 0.0 | 0.00 | 0.00 | 0.00 | 57 | 1020.8 |
| 20260503020650 | 64 | 103 | 0.0 | 0.0 | 0.00 | 0.00 | 0.00 | 56 | 1020.7 |
| 20260503020201 | 65 | 102 | 0.0 | 0.0 | 0.00 | 0.00 | 0.00 | 55 | 1020.6 |
| 20260503015626 | 65 | 102 | 0.0 | 1.0 | 0.00 | 0.00 | 0.00 | 55 | 1020.5 |
| 20260503015159 | 66 | 103 | 0.0 | 1.0 | 0.00 | 0.00 | 0.00 | 54 | 1020.4 |
| 20260503014625 | 66 | 102 | 0.0 | 0.0 | 0.00 | 0.00 | 0.00 | 53 | 1020.3 |
| 20260503014159 | 67 | 102 | 0.0 | 0.0 | 0.00 | 0.00 | 0.00 | 52 | 1020.3 |
| 20260503013724 | 67 | 103 | 0.0 | 2.0 | 0.00 | 0.00 | 0.00 | 51 | 1020.2 |
| 20260503013138 | 68 | 102 | 1.0 | 2.0 | 0.00 | 0.00 | 0.00 | 51 | 1020.2 |
| 20260503012705 | 68 | 102 | 1.0 | 2.0 | 0.00 | 0.00 | 0.00 | 48 | 1020.2 |
| 20260503012128 | 69 | 67 | 0.0 | 0.0 | 0.00 | 0.00 | 0.00 | 42 | 1020.1 |
| 20260503011700 | 69 | 67 | 0.0 | 0.0 | 0.00 | 0.00 | 0.00 | 42 | 1020.0 |
| 20260503011125 | 70 | 67 | 0.0 | 2.0 | 0.00 | 0.00 | 0.00 | 41 | 1019.9 |
| 20260503010658 | 70 | 67 | 0.0 | 2.0 | 0.00 | 0.00 | 0.00 | 39 | 1019.8 |
| 20260503010122 | 71 | 67 | 1.0 | 2.0 | 0.00 | 0.00 | 0.00 | 38 | 1019.7 |
| 20260503005656 | 71 | 67 | 1.0 | 5.0 | 0.00 | 0.00 | 0.00 | 38 | 1019.9 |
| 20260503005201 | 71 | 71 | 2.0 | 5.0 | 0.00 | 0.00 | 0.00 | 37 | 1019.8 |
| 20260503004202 | 72 | 63 | 2.0 | 7.0 | 0.00 | 0.00 | 0.00 | 35 | 1019.8 |
| 20260503003159 | 72 | 46 | 2.0 | 6.0 | 0.00 | 0.00 | 0.00 | 35 | 1019.8 |
| 20260503002706 | 72 | 53 | 2.0 | 7.0 | 0.00 | 0.00 | 0.00 | 34 | 1019.8 |
| 20260503001627 | 73 | 36 | 2.0 | 6.0 | 0.00 | 0.00 | 0.00 | 34 | 1019.8 |
| 20260503001136 | 73 | 34 | 2.0 | 7.0 | 0.00 | 0.00 | 0.00 | 35 | 1019.8 |
| 20260503000614 | 73 | 65 | 4.0 | 7.0 | 0.00 | 0.00 | 0.00 | 33 | 1019.8 |
| 20260503000137 | 73 | 15 | 3.0 | 5.0 | 0.00 | 0.00 | 0.00 | 32 | 1019.8 |
| 20260502235712 | 73 | 36 | 2.0 | 6.0 | 0.00 | 0.00 | 0.00 | 33 | 1019.8 |
| 20260502235136 | 73 | 31 | 3.0 | 7.0 | 0.00 | 0.00 | 0.00 | 34 | 1019.8 |
| 20260502234624 | 73 | 15 | 2.0 | 7.0 | 0.00 | 0.00 | 0.00 | 34 | 1019.7 |
| 20260502234150 | 73 | 32 | 1.0 | 8.0 | 0.00 | 0.00 | 0.00 | 35 | 1019.7 |
| 20260502233702 | 73 | 65 | 5.0 | 8.0 | 0.00 | 0.00 | 0.00 | 32 | 1019.8 |
| 20260502233206 | 73 | 55 | 4.0 | 9.0 | 0.00 | 0.00 | 0.00 | 35 | 1019.7 |
| 20260502232631 | 73 | 74 | 5.0 | 9.0 | 0.00 | 0.00 | 0.00 | 33 | 1019.7 |
| 20260502232205 | 73 | 50 | 1.0 | 8.0 | 0.00 | 0.00 | 0.00 | 34 | 1019.7 |
| 20260502231629 | 73 | 67 | 3.0 | 11.0 | 0.00 | 0.00 | 0.00 | 35 | 1019.7 |
| 20260502231135 | 73 | 69 | 6.0 | 11.0 | 0.00 | 0.00 | 0.00 | 34 | 1019.8 |
| 20260502230648 | 73 | 63 | 5.0 | 10.0 | 0.00 | 0.00 | 0.00 | 31 | 1019.7 |
| 20260502230212 | 73 | 57 | 5.0 | 11.0 | 0.00 | 0.00 | 0.00 | 34 | 1019.7 |
| 20260502225628 | 73 | 77 | 6.0 | 11.0 | 0.00 | 0.00 | 0.00 | 32 | 1019.6 |